Погода в Кореновске

Россия / Краснодарский край     45°27′45″N   39°26′52″E
темп.,
°C
ветер,
м/с
пор.,
м/с
влажн.,
%
обл.,
%
осадки,
мм/ч
давл.,
гПа
погр.,
м
8 марта, пн
пн800:00−1зюз37550 0.0 1022182
03:00−1юз410560 0.0 1021280
06:00−1юз48610 0.0 1020200
09:00+3зюз69500 0.0 10191141
12:00+6зюз68480 0.0 10181566
15:00+6зюз695348 0.1 10161749
18:00+3зюз5106679 0.1 1017421
21:00+1юз6119852 0.1 1017358
9 марта, вт
вт900:00+1юз5129163 0.0 1016372
03:00+1юз5148471 0.0 1016508
06:00+1юз51385100 0.0 1015569
09:00+2зюз71294100 0.4 1016735
12:00+4зюз6981100 0.6 1016799
15:00+5зсз6866100 1.8 10171191
18:00+3зсз586290 0.1 1018576
21:00−1з377074 0.1 1021177
10 марта, ср
ср1000:00−1зюз387340 0.0 1022233
03:00−2сз257452 0.0 1023166
06:00−2сз22710 0.0 102469
09:000ссз24541 0.0 1025822
12:00+2ссз334276 0.0 10251219
15:00+3ссв333788 0.0 10241320
18:000св4752100 0.0 1023283
21:00−1всв51057100 0.0 1023434
11 марта, чт
чт1100:00−2всв61152100 0.0 1022606
03:00−2всв71149100 0.0 1022647
06:00−2всв71249100 0.0 1022762
09:00−2всв81241100 0.0 1023942
12:00+1всв91135100 0.0 10231229
15:00+1св81036100 0.0 10221316
18:00−2св7104789 0.0 10241065
21:00−4св7114944 0.0 1026873
12 марта, пт
пт1200:00−6св711390 0.0 1027805
03:00−6всв711400 0.0 1028792
06:00−7всв610370 0.0 1030663
09:00−5всв69310 0.0 1031663
12:00−1в67290 0.0 10301036
15:000всв56280 0.0 10291197
18:00−2всв37389 0.0 1030216
21:00−4юв4106126 0.0 1030384